Home > Weather > Lund > Past weeks

Flag for Sweden Weather for the Past 2 Weeks in Lund, Sweden

Now
28 °F

Light snow. Passing clouds.


Feels Like: 22 °F
Forecast: 29 / 36 °F
Wind: 6 mph from East

Location: Malmo / Sturup

Current Time: Feb 13, 2016 at 4:29:49 AM

Latest Report: Feb 13, 2016 at 3:20 AM


Visibility: 6 mi

Pressure: 29.53 "Hg

Humidity: 74%

Dew point: 21 °F

Location of LundLocation

Historic Weather in Lund — Graph

°F

Lund Temperature Yesterday

Maximum temperature yesterday: 34 °F (at 1:20 AM)
Minimum temperature yesterday: 25 °F (at 8:50 PM)
Average temperature yesterday: 32 °F

High & Low Weather Summary for the Past Weeks

 TemperatureHumidityPressure
High46 °F (Feb 1, 7:50 PM)100% (Jan 29, 10:50 AM)30.09 "Hg (Jan 29, 10:50 AM)
Low25 °F (Feb 12, 8:50 PM)70% (Feb 3, 3:20 PM)28.77 "Hg (Feb 10, 3:20 AM)
Average39 °F88%29.50 "Hg
* Reported Jan 29 3:20 AM — Feb 13 3:20 AM, Lund, Weather by CustomWeather, © 2016

Note: Actual official high and low records may vary slightly from our data, if they occured in-between our weather recording intervals... More about our weather records

Advertising

Lund Weather History for the Previous 24 Hours

 ConditionsComfort  
Time TempWeatherWind HumidityBarometerVisibility
3:20 AM
Sat, Feb 13
28 °FLight snow. Passing clouds.6 mph74%29.53 "Hg6 mi
2:20 AM28 °FLight snow. Passing clouds.2 mph93%29.53 "Hg6 mi
1:50 AM30 °FPassing clouds.3 mph80%29.53 "HgN/A
1:20 AM28 °FPassing clouds.1 mph86%29.53 "HgN/A
12:50 AM28 °FPassing clouds.2 mph93%29.53 "HgN/A
12:20 AM27 °FPassing clouds.No wind93%29.53 "HgN/A
11:50 PM
Fri, Feb 12
27 °FPassing clouds.2 mph93%29.53 "HgN/A
11:20 PM27 °FPassing clouds.2 mph93%29.53 "HgN/A
10:20 PM27 °FClear.No wind93%29.53 "Hg10 mi
9:50 PM27 °FClear.2 mph93%29.53 "Hg10 mi
9:20 PM27 °FClear.No wind93%29.53 "Hg10 mi
8:50 PM25 °FClear.2 mph93%29.53 "Hg10 mi
8:20 PM27 °FClear.No wind86%29.53 "Hg10 mi
7:50 PM27 °FClear.No wind86%29.53 "Hg10 mi
7:20 PM27 °FClear.1 mph86%29.53 "Hg10 mi
6:50 PM28 °FClear.3 mph80%29.53 "Hg10 mi
6:20 PM28 °FPassing clouds.3 mph80%29.53 "HgN/A
5:50 PM28 °FClear.3 mph86%29.53 "Hg10 mi
5:20 PM30 °FClear.5 mph80%29.53 "Hg10 mi
4:50 PM30 °FSunny.6 mph80%29.53 "Hg10 mi
4:20 PM32 °FPassing clouds.10 mph75%29.53 "HgN/A
3:50 PM34 °FPartly sunny.10 mph70%29.53 "HgN/A
3:20 PM34 °FPartly sunny.12 mph75%29.50 "HgN/A
2:50 PM34 °FPartly sunny.12 mph75%29.50 "HgN/A
2:20 PM34 °FMore clouds than sun.12 mph75%29.50 "HgN/A
1:50 PM34 °FOvercast.10 mph75%29.50 "HgN/A
1:20 PM34 °FMostly cloudy.9 mph70%29.50 "HgN/A
12:50 PM34 °FPartly sunny.12 mph81%29.50 "HgN/A
12:20 PM34 °FPartly sunny.12 mph70%29.50 "HgN/A
11:50 AM34 °FMore clouds than sun.12 mph75%29.50 "HgN/A
11:20 AM34 °FScattered clouds.13 mph75%29.53 "HgN/A
10:50 AM34 °FPassing clouds.13 mph81%29.50 "HgN/A
10:20 AM34 °FPartly sunny.12 mph81%29.50 "HgN/A
9:50 AM34 °FScattered clouds.8 mph87%29.50 "HgN/A
9:20 AM34 °FSnow. Cloudy.8 mph87%29.50 "HgN/A
8:50 AM34 °FLight snow. Partly sunny.9 mph87%29.50 "HgN/A
8:20 AM34 °FPartly sunny.9 mph87%29.50 "HgN/A
7:50 AM34 °FPartly sunny.9 mph87%29.50 "HgN/A
7:20 AM34 °FPassing clouds.9 mph87%29.50 "HgN/A
6:20 AM34 °FPassing clouds.9 mph87%29.50 "HgN/A
5:50 AM34 °FPassing clouds.6 mph93%29.50 "HgN/A
5:20 AM34 °FMostly cloudy.5 mph93%29.50 "HgN/A
4:50 AM34 °FPassing clouds.7 mph93%29.50 "HgN/A
4:20 AM34 °FPartly cloudy.8 mph93%29.50 "HgN/A
Weather by CustomWeather, © 2016

See weather overviewHow to use our weather pages